Middletown, OH

9:18 PM EDT on October 16, 2017 (GMT -0400)
Hook Field Municipal

Weather History for KMWO - September, 2012

Change the Weather History Date:

Friday, September 28, 2012

  Actual Average (KFFO) Record (KFFO)
Temperature  
Mean Temperature 61 °F -  
Max Temperature 67 °F 70 °F 89 °F (1999)
Min Temperature 55 °F 46 °F 42 °F (2001)
Degree Days  
Heating Degree Days 4    
Growing Degree Days 11 (Base 50)    
Moisture  
Dew Point 59 °F    
Average Humidity 96    
Maximum Humidity 100    
Minimum Humidity 85    
Precipitation  
Precipitation 0.00 in - - ()
Sea Level Pressure  
Sea Level Pressure 30.11 in    
Wind  
Wind Speed 4 mph (ENE)    
Max Wind Speed 8 mph    
Max Gust Speed -    
Visibility 8 miles    
Events      
Averages and records for this station are not official NWS values.
T = Trace of Precipitation, MM = Missing Value Source: NWS Daily Summary

Daily Weather History Graph

Daily Weather History Graph

Search for Another Location

Airport or City:

Trip Planner

Search our weather history database for the weather conditions in past years. The results will help you decide how hot, cold, wet, or windy it might be!

Date:

Astronomy

Sep. 28, 2012 Rise Set
Actual Time 7:31 AM EDT 7:24 PM EDT
Civil Twilight 7:04 AM EDT 7:50 PM EDT
Nautical Twilight 6:33 AM EDT 8:22 PM EDT
Astronomical Twilight 6:01 AM EDT 8:53 PM EDT
Moon 6:25 PM EDT (9/28) 6:01 AM EDT (9/28)
Length of Visible Light 12h 46m
Length of Day
11h 52m
Waxing Gibbous, 98% of the Moon is Illuminated
Sep 28
Waxing Gibbous
Sep 29
Full
Oct 8
Last Quarter
Oct 15
New
Oct 21
First Quarter

Hourly Weather History & Observations

Time (EDT) Temp. Dew Point Humidity Pressure Visibility Wind Dir Wind Speed Gust Speed Precip Events Conditions
12:15 AM 59.0 °F 58.8 °F 99% 30.16 in 10.0 mi ENE 5.8 mph - N/A   Overcast
12:35 AM 59.0 °F 59.0 °F 100% 30.15 in 10.0 mi ENE 4.6 mph - N/A   Overcast
12:55 AM 58.6 °F 58.6 °F 100% 30.15 in 10.0 mi ESE 5.8 mph - N/A   Overcast
1:15 AM 57.7 °F 57.7 °F 100% 30.15 in 10.0 mi East 5.8 mph - N/A   Overcast
1:35 AM 57.7 °F 57.7 °F 100% 30.15 in 10.0 mi NE 4.6 mph - N/A   Overcast
1:55 AM 57.7 °F 57.7 °F 100% 30.15 in 10.0 mi East 4.6 mph - N/A   Overcast
2:15 AM 57.7 °F 57.7 °F 100% 30.15 in 10.0 mi ENE 3.5 mph - N/A   Overcast
2:35 AM 57.7 °F 57.7 °F 100% 30.15 in 10.0 mi East 3.5 mph - N/A   Overcast
2:55 AM 57.7 °F 57.7 °F 100% 30.15 in 7.0 mi ENE 4.6 mph - N/A   Overcast
3:15 AM 57.7 °F 57.7 °F 100% 30.14 in 7.0 mi ENE 4.6 mph - N/A   Overcast
3:35 AM 57.7 °F 57.7 °F 100% 30.13 in 5.0 mi ESE 4.6 mph - N/A   Overcast
3:55 AM 57.7 °F 57.7 °F 100% 30.13 in 5.0 mi East 3.5 mph - N/A   Overcast
4:15 AM 57.7 °F 57.7 °F 100% 30.13 in 4.0 mi Calm Calm - N/A   Overcast
4:35 AM 57.7 °F 57.7 °F 100% 30.13 in 3.0 mi Calm Calm - N/A   Overcast
4:55 AM 57.7 °F 57.7 °F 100% 30.13 in 4.0 mi ENE 5.8 mph - N/A   Overcast
5:15 AM 57.4 °F 57.4 °F 100% 30.12 in 4.0 mi Calm Calm - N/A   Overcast
5:35 AM 55.9 °F 55.9 °F 100% 30.12 in 3.0 mi Calm Calm - N/A   Overcast
5:55 AM 57.0 °F 57.0 °F 100% 30.11 in 4.0 mi NNE 4.6 mph - N/A   Overcast
6:15 AM 55.6 °F 55.6 °F 100% 30.12 in 1.8 mi ENE 5.8 mph - N/A   Overcast
6:35 AM 55.4 °F 55.4 °F 100% 30.13 in 2.0 mi East 5.8 mph - N/A   Overcast
6:55 AM 55.4 °F 55.4 °F 100% 30.13 in 4.0 mi East 4.6 mph - N/A   Overcast
7:15 AM 55.4 °F 55.4 °F 100% 30.13 in 4.0 mi NE 5.8 mph - N/A   Overcast
7:35 AM 55.4 °F 55.4 °F 100% 30.13 in 3.0 mi NNE 4.6 mph - N/A   Overcast
7:55 AM 55.4 °F 55.4 °F 100% 30.13 in 3.0 mi NE 5.8 mph - N/A   Overcast
8:15 AM 55.4 °F 55.4 °F 100% 30.13 in 2.5 mi East 5.8 mph - N/A   Overcast
8:35 AM 55.4 °F 55.4 °F 100% 30.13 in 3.0 mi ENE 3.5 mph - N/A   Overcast
8:55 AM 55.4 °F 55.4 °F 100% 30.14 in 2.5 mi Calm Calm - N/A   Overcast
9:15 AM 55.4 °F 55.4 °F 100% 30.14 in 3.0 mi NE 3.5 mph - N/A   Overcast
9:35 AM 55.4 °F 55.4 °F 100% 30.14 in 5.0 mi East 3.5 mph - N/A   Overcast
9:55 AM 55.4 °F 55.4 °F 100% 30.14 in 7.0 mi Calm Calm - N/A   Overcast
10:15 AM 57.0 °F 57.0 °F 100% 30.15 in 10.0 mi ENE 4.6 mph - N/A   Overcast
10:35 AM 57.7 °F 57.7 °F 100% 30.15 in 10.0 mi NE 5.8 mph - N/A   Overcast
10:55 AM 57.7 °F 57.7 °F 100% 30.15 in 10.0 mi East 5.8 mph - N/A   Overcast
11:15 AM 57.7 °F 57.2 °F 98% 30.15 in 10.0 mi NE 5.8 mph - N/A   Overcast
11:35 AM 57.7 °F 57.2 °F 98% 30.15 in 10.0 mi ENE 6.9 mph - N/A   Overcast
11:55 AM 57.9 °F 57.0 °F 97% 30.14 in 10.0 mi East 3.5 mph - N/A   Overcast
12:15 PM 58.1 °F 57.2 °F 97% 30.14 in 10.0 mi ENE 5.8 mph - N/A   Overcast
12:35 PM 59.0 °F 57.9 °F 96% 30.14 in 10.0 mi ENE 4.6 mph - N/A   Overcast
12:55 PM 59.0 °F 57.7 °F 96% 30.14 in 10.0 mi East 3.5 mph - N/A   Overcast
1:15 PM 59.2 °F 57.7 °F 95% 30.13 in 10.0 mi NE 3.5 mph - N/A   Overcast
1:35 PM 61.0 °F 58.6 °F 92% 30.13 in 10.0 mi ENE 3.5 mph - N/A   Overcast
1:55 PM 62.6 °F 59.9 °F 91% 30.12 in 10.0 mi NE 3.5 mph - N/A   Mostly Cloudy
2:15 PM 62.6 °F 59.9 °F 91% 30.11 in 10.0 mi Calm Calm - N/A   Overcast
2:35 PM 65.3 °F 61.9 °F 89% 30.10 in 10.0 mi Calm Calm - N/A   Overcast
3:15 PM 67.6 °F 63.5 °F 87% 30.10 in 10.0 mi Calm Calm - N/A   Overcast
3:35 PM 67.6 °F 63.7 °F 87% 30.09 in 10.0 mi Calm Calm - N/A   Overcast
3:55 PM 67.6 °F 63.7 °F 87% 30.08 in 10.0 mi Calm Calm - N/A   Overcast
4:15 PM 67.6 °F 63.0 °F 85% 30.08 in 10.0 mi Calm Calm - N/A   Mostly Cloudy
4:35 PM 67.6 °F 63.0 °F 85% 30.07 in 10.0 mi Calm Calm - N/A   Mostly Cloudy
4:55 PM 67.6 °F 63.5 °F 87% 30.07 in 5.0 mi Calm Calm - N/A   Haze
5:15 PM 67.6 °F 63.1 °F 85% 30.06 in 10.0 mi Calm Calm - N/A   Overcast
5:35 PM 67.6 °F 63.7 °F 87% 30.06 in 10.0 mi Calm Calm - N/A   Overcast
5:55 PM 67.6 °F 63.3 °F 86% 30.05 in 10.0 mi Calm Calm - N/A   Mostly Cloudy
6:15 PM 67.6 °F 63.5 °F 87% 30.05 in 10.0 mi Calm Calm - N/A   Scattered Clouds
6:35 PM 67.6 °F 64.4 °F 89% 30.05 in 10.0 mi WSW 3.5 mph - N/A   Scattered Clouds
6:55 PM 67.6 °F 64.4 °F 89% 30.05 in 10.0 mi Calm Calm - N/A   Clear
7:15 PM 66.4 °F 64.2 °F 93% 30.05 in 10.0 mi Calm Calm - N/A   Scattered Clouds
7:35 PM 62.6 °F 62.4 °F 99% 30.05 in 10.0 mi Calm Calm - N/A   Mostly Cloudy
7:55 PM 60.1 °F 60.1 °F 100% 30.05 in 10.0 mi Calm Calm - N/A   Scattered Clouds
8:15 PM 59.5 °F 59.5 °F 100% 30.06 in 4.0 mi Calm Calm - N/A   Clear
8:35 PM 57.9 °F 57.9 °F 100% 30.06 in 5.0 mi Calm Calm - N/A   Clear
8:55 PM 57.7 °F 57.7 °F 100% 30.06 in 5.0 mi Calm Calm - N/A   Scattered Clouds
9:15 PM 57.7 °F 57.7 °F 100% 30.06 in 5.0 mi Calm Calm - N/A   Mostly Cloudy
9:35 PM 57.7 °F 57.7 °F 100% 30.07 in 5.0 mi Calm Calm - N/A   Mostly Cloudy
9:55 PM 57.7 °F 57.7 °F 100% 30.07 in 5.0 mi Calm Calm - N/A   Scattered Clouds
10:15 PM 57.7 °F 57.7 °F 100% 30.08 in 4.0 mi Calm Calm - N/A   Mostly Cloudy
10:35 PM 58.6 °F 58.6 °F 100% 30.08 in 10.0 mi Calm Calm - N/A   Overcast
10:55 PM 60.1 °F 58.1 °F 93% 30.08 in 10.0 mi East 6.9 mph - N/A   Overcast
11:15 PM 60.1 °F 57.6 °F 91% 30.08 in 10.0 mi NNW 4.6 mph - N/A   Overcast
11:35 PM 60.1 °F 57.0 °F 90% 30.08 in 10.0 mi ENE 8.1 mph - N/A   Overcast
11:55 PM 59.0 °F 56.3 °F 91% 30.08 in 10.0 mi East 6.9 mph - N/A   Overcast